This demonstration page uses our WeatherBlox Daily Observations layout. Learn more.

Left ArrowRight Arrow

39.29038, -76.61219

Hourly Observations for August 18, 2022

Temp ( °F °C ) Dew Point ( °F °C ) Humidity (%) Winds ( mph kmh ) Pressure ( in mb ) Visibility ( mi km ) Precip ( " mm )
1:54 am 01:54 undefined 68 20 51 10.6 55 55 undefined N/A 29.96 1015 N/A 0.00 0.00
2:54 am 02:54 undefined 66 18.9 50 10 56 56 undefined N/A 29.96 1015 N/A 0.00 0.00
3:54 am 03:54 undefined 65 18.3 50 10 58 58 undefined N/A 29.96 1014 N/A 0.00 0.00
4:54 am 04:54 undefined 66 18.9 50 10 56 56 undefined N/A 29.96 1015 N/A 0.00 0.00
5:54 am 05:54 undefined 66 18.9 50 10 56 56 undefined N/A 29.96 1015 N/A 0.00 0.00
6:54 am 06:54 undefined 67 19.4 51 10.6 57 57 undefined N/A 29.98 1015 N/A 0.00 0.00
7:54 am 07:54 undefined 70 21.1 N/A N/A undefined N/A 29.98 1015 N/A 0.00 0.00
8:54 am 08:54 undefined 73 22.8 58 14.4 59 59 undefined N/A 29.98 1015 N/A 0.00 0.00
9:54 am 09:54 undefined 77 25 58 14.4 52 52 undefined N/A 29.97 1015 N/A 0.00 0.00
10:54 am 10:54 undefined 79 26.1 59 15 50 50 undefined N/A 29.97 1015 N/A 0.00 0.00
11:54 am 11:54 undefined 81 27.2 59 15 47 47 undefined N/A 29.96 1015 N/A 0.00 0.00
12:54 pm 12:54 undefined 83 28.3 57 13.9 41 41 undefined N/A 29.96 1015 N/A 0.00 0.00
1:54 pm 13:54 undefined 85 29.4 55 12.8 36 36 undefined N/A 29.95 1014 N/A 0.00 0.00
2:54 pm 14:54 undefined 87 30.6 54 12.2 32 32 undefined N/A 29.94 1014 N/A 0.00 0.00
3:54 pm 15:54 undefined 88 31.1 54 12.2 31 31 undefined N/A 29.93 1014 N/A 0.00 0.00
4:54 pm 16:54 undefined 87 30.6 53 11.7 31 31 undefined N/A 29.93 1014 N/A 0.00 0.00
5:54 pm 17:54 undefined 86 30 54 12.2 33 33 undefined N/A 29.94 1014 N/A 0.00 0.00
6:54 pm 18:54 undefined 85 29.4 54 12.2 35 35 undefined N/A 29.94 1014 N/A 0.00 0.00
7:54 pm 19:54 undefined 84 28.9 54 12.2 36 36 undefined N/A 29.96 1015 N/A 0.00 0.00
8:54 pm 20:54 undefined 82 27.8 55 12.8 40 40 undefined N/A 29.98 1015 N/A 0.00 0.00
9:54 pm 21:54 undefined 80 26.7 55 12.8 42 42 undefined N/A 30.00 1016 N/A 0.00 0.00
10:54 pm 22:54 undefined 78 25.6 56 13.3 47 47 undefined N/A 30.00 1016 N/A 0.00 0.00
11:54 pm 23:54 undefined 76 24.4 58 14.4 54 54 undefined N/A 30.01 1016 N/A 0.00 0.00

Powered by AerisWeather